Location: Gaast
(52.9002°N, 5.8891°E)
Time: 12:09:33
(UTC+00:00)

ARIANE 5 R/B - Pass Details

Date: 18 November 2025
Orbit: 747 x 792 km, 98.8° (Epoch: 10 December)

Event Time Altitude Azimuth Distance (km) Brightness Sun altitude
Rises 17:44:29 0° 187° (S) 3,180 5.9 -18.7°
Reaches altitude 10° 17:46:55 10° 196° (SSW) 2,261 5.2 -19.1°
Maximum altitude 17:51:30 37° 263° (W) 1,165 4.0 -19.8°
Drops below altitude 10° 17:56:08 10° 330° (NNW) 2,288 5.2 -20.5°
Sets 17:58:38 0° 339° (NNW) 3,223 5.9 -20.9°
